contact:dominique.lefevre@mio.osupytheas.fr, maurice.libes@osupytheas.fr, didier.mallarino@osupytheas.fr
Project:EMSO http://www.emso-fr.org/EMSO-France
Depth: 2436.0 m
Title:EMSO Ligure Ouest : Data MII capteur AQUADOPP
Date,Latitude,Longitude,X_East,Y_North,Z_Up,Amplitude_X,Amplitude_Y,Amplitude_Z,Batterie,SoundSpeed,Heading,Pitch,Roll,Pressure,TIS,Speed,Direction
, degrees North, degrees East, m.s-1, m.s-1,m.s-1, 1, 1, 1, Volt, m.s-1, degree, degree, degree, dbar, degree_C, m.s-1, degree
2023-12-11T00:04:03,42.805,6.029,0.004,0.032,-0.035,109.0,108.0,105.0,13.4,1505.2,355.6,-0.8,1.8,2471.495,13.29,0.032,7.1
2023-12-11T00:07:03,42.805,6.029,-0.006,0.028,0.02,109.0,107.0,105.0,13.4,1505.2,348.3,-0.8,1.8,2471.457,13.29,0.028,347.9
2023-12-11T00:10:03,42.805,6.029,-0.032,0.041,0.013,108.0,108.0,105.0,13.4,1505.2,345.0,-0.8,1.9,2471.424,13.29,0.052,322.0
2023-12-11T00:13:03,42.805,6.029,0.006,0.035,0.008,108.0,107.0,105.0,13.4,1505.2,354.9,-0.8,1.8,2471.456,13.29,0.035,9.7
2023-12-11T00:16:03,42.805,6.029,0.0,0.046,0.019,109.0,107.0,105.0,13.4,1505.2,357.2,-0.8,1.8,2471.442,13.29,0.046,0.0
2023-12-11T00:19:03,42.805,6.029,0.002,0.026,-0.002,109.0,109.0,104.0,13.4,1505.2,352.4,-0.8,1.8,2471.45,13.29,0.026,4.4
2023-12-11T00:22:03,42.805,6.029,-0.008,0.02,-0.006,108.0,107.0,105.0,13.3,1505.2,353.4,-0.8,1.8,2471.455,13.29,0.021,338.2
2023-12-11T00:25:03,42.805,6.029,-0.004,0.024,-0.017,109.0,109.0,105.0,13.4,1505.2,357.4,-0.7,1.8,2471.439,13.29,0.024,350.5
2023-12-11T00:28:03,42.805,6.029,-0.014,0.032,-0.031,109.0,109.0,105.0,13.4,1505.2,338.6,-0.7,1.8,2471.454,13.29,0.034,336.4
2023-12-11T00:31:03,42.805,6.029,-0.02,0.037,-0.01,108.0,108.0,106.0,13.3,1505.2,357.5,-0.8,1.8,2471.438,13.29,0.042,331.6
2023-12-11T00:34:03,42.805,6.029,0.002,0.042,0.015,108.0,108.0,105.0,13.4,1505.2,1.6,-0.8,1.8,2471.431,13.29,0.042,2.7
2023-12-11T00:37:03,42.805,6.029,-0.013,0.038,-0.017,108.0,107.0,105.0,13.3,1505.2,353.6,-0.8,1.8,2471.463,13.29,0.04,341.1
2023-12-11T00:40:03,42.805,6.029,-0.015,0.033,0.0,108.0,108.0,105.0,13.4,1505.2,1.5,-0.8,1.8,2471.463,13.29,0.036,335.6
2023-12-11T00:43:03,42.805,6.029,-0.008,0.011,0.0,109.0,108.0,105.0,13.3,1505.2,340.6,-0.8,1.8,2471.423,13.29,0.013,324.0
2023-12-11T00:46:03,42.805,6.029,-0.018,0.01,-0.01,110.0,108.0,106.0,13.3,1505.2,354.8,-0.7,1.8,2471.427,13.29,0.02,299.1
2023-12-11T00:49:03,42.805,6.029,0.011,0.024,-0.008,108.0,108.0,105.0,13.3,1505.2,3.3,-0.8,1.8,2471.432,13.29,0.026,24.6
2023-12-11T00:52:03,42.805,6.029,-0.033,0.02,0.006,107.0,108.0,105.0,13.4,1505.2,339.5,-0.8,1.8,2471.474,13.29,0.038,301.2
2023-12-11T00:55:03,42.805,6.029,-0.013,0.032,-0.039,109.0,108.0,105.0,13.4,1505.2,343.9,-0.8,1.8,2471.437,13.29,0.034,337.9
2023-12-11T00:58:03,42.805,6.029,0.006,0.026,-0.031,109.0,108.0,105.0,13.4,1505.2,351.6,-0.8,1.8,2471.428,13.29,0.026,13.0
2023-12-11T01:04:03,42.805,6.029,-0.023,0.038,-0.048,110.0,107.0,107.0,13.4,1505.2,350.5,-0.8,1.8,2471.494,13.29,0.044,328.8
2023-12-11T01:07:03,42.805,6.029,-0.001,0.014,0.009,109.0,107.0,105.0,13.4,1505.2,0.8,-0.8,1.8,2471.489,13.29,0.014,355.9
2023-12-11T01:10:03,42.805,6.029,-0.028,0.023,-0.037,108.0,109.0,105.0,13.4,1505.2,345.3,-0.7,1.8,2471.52,13.29,0.036,309.4
2023-12-11T01:13:03,42.805,6.029,-0.015,0.025,-0.016,107.0,109.0,104.0,13.3,1505.2,343.3,-0.8,1.8,2471.471,13.29,0.029,329.0
2023-12-11T01:16:03,42.805,6.029,-0.011,0.021,-0.01,107.0,108.0,104.0,13.3,1505.2,1.5,-0.8,1.8,2471.479,13.29,0.023,332.4
2023-12-11T01:19:03,42.805,6.029,0.0,0.03,-0.01,108.0,107.0,105.0,13.3,1505.2,352.1,-0.8,1.8,2471.458,13.29,0.03,0.0
2023-12-11T01:22:03,42.805,6.029,0.006,0.034,-0.003,108.0,107.0,105.0,13.4,1505.2,353.9,-0.8,1.8,2471.486,13.29,0.034,10.0
2023-12-11T01:25:03,42.805,6.029,-0.024,0.011,-0.007,108.0,108.0,104.0,13.4,1505.2,352.7,-0.7,1.8,2471.469,13.29,0.026,294.6
2023-12-11T01:28:03,42.805,6.029,-0.012,0.032,-0.007,108.0,107.0,105.0,13.4,1505.2,0.8,-0.7,1.8,2471.459,13.29,0.034,339.4
2023-12-11T01:31:03,42.805,6.029,-0.016,0.021,-0.006,108.0,107.0,105.0,13.4,1505.2,344.5,-0.8,1.8,2471.455,13.29,0.026,322.7
2023-12-11T01:34:03,42.805,6.029,0.0,0.038,0.014,108.0,107.0,105.0,13.4,1505.2,348.0,-0.8,1.8,2471.449,13.29,0.038,0.0
2023-12-11T01:37:03,42.805,6.029,-0.001,0.056,-0.007,109.0,107.0,104.0,13.4,1505.2,0.0,-0.8,1.8,2471.486,13.29,0.056,359.0
2023-12-11T01:40:03,42.805,6.029,-0.004,0.047,-0.006,108.0,108.0,104.0,13.4,1505.2,357.4,-0.7,1.8,2471.497,13.29,0.047,355.1
2023-12-11T01:43:03,42.805,6.029,0.0,0.027,-0.026,108.0,107.0,105.0,13.4,1505.2,346.1,-0.8,1.8,2471.454,13.29,0.026,0.0
2023-12-11T01:46:03,42.805,6.029,0.003,0.018,-0.008,108.0,107.0,104.0,13.4,1505.2,348.2,-0.8,1.8,2471.45,13.29,0.018,9.5
2023-12-11T01:49:03,42.805,6.029,-0.017,0.011,-0.015,109.0,107.0,105.0,13.4,1505.2,346.6,-0.8,1.8,2471.457,13.29,0.02,302.9
2023-12-11T01:52:03,42.805,6.029,-0.005,0.02,0.011,107.0,107.0,105.0,13.3,1505.2,354.2,-0.8,1.8,2471.467,13.29,0.02,346.0
2023-12-11T01:55:03,42.805,6.029,0.008,0.001,-0.022,108.0,111.0,105.0,13.4,1505.2,1.5,-0.7,1.8,2471.474,13.29,0.008,82.9
2023-12-11T01:58:03,42.805,6.029,-0.027,0.018,0.0,107.0,107.0,105.0,13.3,1505.2,1.5,-0.8,1.8,2471.485,13.29,0.032,303.7
2023-12-11T02:04:03,42.805,6.029,-0.02,0.048,-0.018,107.0,108.0,104.0,13.4,1505.2,2.3,-0.8,1.8,2471.569,13.29,0.052,337.4
2023-12-11T02:07:03,42.805,6.029,-0.012,0.01,-0.029,108.0,107.0,105.0,13.4,1505.2,356.5,-0.8,1.8,2471.533,13.29,0.015,309.8
2023-12-11T02:10:03,42.805,6.029,-0.016,0.022,-0.011,108.0,106.0,105.0,13.4,1505.2,346.1,-0.8,1.8,2471.547,13.29,0.027,324.0
2023-12-11T02:13:03,42.805,6.029,-0.015,0.014,-0.008,108.0,107.0,105.0,13.3,1505.2,340.2,-0.8,1.8,2471.494,13.29,0.02,313.0
2023-12-11T02:16:03,42.805,6.029,-0.013,0.007,-0.002,109.0,108.0,104.0,13.3,1505.2,351.1,-0.8,1.8,2471.519,13.29,0.014,298.3
2023-12-11T02:19:03,42.805,6.029,0.001,0.026,-0.007,108.0,107.0,104.0,13.3,1505.2,355.3,-0.8,1.8,2471.494,13.29,0.026,2.2
2023-12-11T02:22:03,42.805,6.029,-0.002,0.007,-0.01,108.0,108.0,104.0,13.3,1505.2,348.9,-0.8,1.8,2471.552,13.29,0.007,344.1
2023-12-11T02:25:03,42.805,6.029,-0.042,0.014,-0.046,107.0,107.0,103.0,13.4,1505.2,344.6,-0.7,1.8,2471.501,13.29,0.044,288.4
2023-12-11T02:28:03,42.805,6.029,0.002,0.021,0.016,107.0,106.0,104.0,13.3,1505.2,349.2,-0.8,1.8,2471.534,13.29,0.021,5.4
2023-12-11T02:31:03,42.805,6.029,-0.006,0.026,-0.018,117.0,107.0,105.0,13.4,1505.2,2.4,-0.7,1.8,2471.532,13.29,0.026,347.0
2023-12-11T02:34:03,42.805,6.029,0.001,0.028,-0.03,107.0,107.0,105.0,13.4,1505.2,347.2,-0.8,1.8,2471.492,13.29,0.028,2.0
2023-12-11T02:37:03,42.805,6.029,-0.013,0.028,-0.013,108.0,107.0,104.0,13.4,1505.2,344.3,-0.8,1.8,2471.544,13.29,0.03,335.1
2023-12-11T02:40:03,42.805,6.029,-0.009,0.014,-0.021,107.0,108.0,104.0,13.4,1505.2,337.8,-0.7,1.8,2471.54,13.29,0.016,327.3
2023-12-11T02:43:03,42.805,6.029,0.012,0.015,0.022,107.0,106.0,105.0,13.3,1505.2,343.6,-0.8,1.8,2471.533,13.29,0.019,38.7
2023-12-11T02:46:03,42.805,6.029,-0.005,0.018,-0.001,109.0,108.0,105.0,13.3,1505.2,337.4,-0.8,1.8,2471.515,13.29,0.018,344.5
2023-12-11T02:49:03,42.805,6.029,-0.001,0.032,-0.029,109.0,106.0,104.0,13.3,1505.2,348.2,-0.8,1.8,2471.527,13.29,0.032,358.2
2023-12-11T02:52:03,42.805,6.029,-0.008,0.006,0.01,109.0,107.0,105.0,13.4,1505.2,351.0,-0.8,1.8,2471.554,13.29,0.01,306.9
2023-12-11T02:55:03,42.805,6.029,-0.021,0.024,-0.019,107.0,107.0,105.0,13.4,1505.2,347.5,-0.7,1.8,2471.539,13.29,0.031,318.8
2023-12-11T02:58:03,42.805,6.029,0.01,0.015,-0.02,108.0,107.0,104.0,13.3,1505.2,0.0,-0.8,1.8,2471.51,13.29,0.018,33.7
2023-12-11T03:04:03,42.805,6.029,0.0,0.003,-0.029,110.0,107.0,104.0,13.4,1505.2,348.6,-0.8,1.8,2471.527,13.29,0.003,0.0
2023-12-11T03:07:03,42.805,6.029,0.004,0.006,-0.028,108.0,107.0,105.0,13.3,1505.2,0.8,-0.8,1.8,2471.607,13.29,0.007,33.7
2023-12-11T03:10:03,42.805,6.029,-0.003,0.026,-0.011,106.0,106.0,104.0,13.4,1505.2,344.1,-0.8,1.8,2471.596,13.29,0.026,353.4
2023-12-11T03:13:03,42.805,6.029,-0.009,0.003,0.01,107.0,107.0,104.0,13.4,1505.2,347.6,-0.8,1.8,2471.598,13.29,0.009,288.4
2023-12-11T03:16:03,42.805,6.029,0.007,0.032,-0.015,107.0,107.0,104.0,13.4,1505.2,353.7,-0.8,1.8,2471.606,13.29,0.032,12.3
2023-12-11T03:19:03,42.805,6.029,-0.016,0.039,0.006,107.0,107.0,104.0,13.4,1505.2,342.5,-0.8,1.8,2471.597,13.29,0.042,337.7
2023-12-11T03:22:03,42.805,6.029,0.006,0.026,-0.019,108.0,107.0,103.0,13.4,1505.2,350.6,-0.8,1.8,2471.58,13.29,0.026,13.0
2023-12-11T03:25:03,42.805,6.029,0.019,-0.004,-0.02,106.0,106.0,104.0,13.4,1505.2,355.1,-0.8,1.9,2471.557,13.29,0.019,101.9
2023-12-11T03:28:03,42.805,6.029,-0.017,0.009,-0.021,108.0,106.0,104.0,13.4,1505.2,346.1,-0.7,1.8,2471.552,13.29,0.019,297.9
2023-12-11T03:31:03,42.805,6.029,-0.014,0.021,-0.009,107.0,107.0,104.0,13.4,1505.2,349.0,-0.8,1.8,2471.582,13.29,0.025,326.3
2023-12-11T03:34:03,42.805,6.029,0.008,0.031,-0.012,107.0,107.0,105.0,13.3,1505.2,342.6,-0.8,1.8,2471.607,13.29,0.032,14.5
2023-12-11T03:37:03,42.805,6.029,0.012,0.022,0.001,108.0,106.0,104.0,13.3,1505.2,346.5,-0.8,1.8,2471.574,13.29,0.025,28.6
2023-12-11T03:40:03,42.805,6.029,0.001,0.02,-0.021,107.0,107.0,104.0,13.4,1505.2,0.7,-0.7,1.8,2471.609,13.29,0.02,2.9
2023-12-11T03:43:03,42.805,6.029,0.0,0.021,-0.053,108.0,107.0,103.0,13.3,1505.2,354.8,-0.8,1.8,2471.576,13.29,0.021,0.0
2023-12-11T03:46:03,42.805,6.029,0.002,0.003,-0.036,106.0,109.0,105.0,13.4,1505.2,351.1,-0.8,1.8,2471.596,13.29,0.003,33.7
2023-12-11T03:49:03,42.805,6.029,-0.023,0.012,-0.028,107.0,106.0,104.0,13.4,1505.2,337.6,-0.8,1.8,2471.574,13.29,0.025,297.6
2023-12-11T03:52:03,42.805,6.029,-0.005,0.017,-0.023,108.0,106.0,104.0,13.4,1505.2,345.3,-0.8,1.8,2471.571,13.29,0.017,343.6
2023-12-11T03:55:03,42.805,6.029,-0.007,-0.004,-0.002,106.0,108.0,104.0,13.3,1505.2,354.7,-0.8,1.8,2471.631,13.29,0.008,240.3
2023-12-11T03:58:03,42.805,6.029,0.007,0.011,-0.004,107.0,106.0,105.0,13.4,1505.2,342.6,-0.7,1.8,2471.601,13.29,0.013,32.5
2023-12-11T04:04:03,42.805,6.029,-0.005,0.015,0.001,108.0,106.0,105.0,13.3,1505.2,341.3,-0.7,1.8,2471.665,13.29,0.015,341.6
2023-12-11T04:07:03,42.805,6.029,0.01,0.011,-0.038,107.0,107.0,104.0,13.3,1505.2,343.3,-0.8,1.8,2471.654,13.29,0.014,42.3
2023-12-11T04:10:03,42.805,6.029,-0.016,0.024,-0.027,107.0,106.0,105.0,13.3,1505.2,0.0,-0.8,1.8,2471.648,13.29,0.028,326.3
2023-12-11T04:13:03,42.805,6.029,0.01,0.021,0.0,106.0,107.0,104.0,13.4,1505.2,349.3,-0.7,1.8,2471.65,13.29,0.023,25.5
2023-12-11T04:16:03,42.805,6.029,0.017,0.015,-0.004,107.0,107.0,105.0,13.3,1505.2,357.3,-0.8,1.8,2471.644,13.29,0.022,48.6
2023-12-11T04:19:03,42.805,6.029,0.004,0.017,-0.013,107.0,107.0,105.0,13.4,1505.2,349.6,-0.8,1.8,2471.622,13.29,0.017,13.2
2023-12-11T04:22:03,42.805,6.029,-0.014,0.028,-0.054,109.0,107.0,105.0,13.4,1505.2,349.1,-0.8,1.8,2471.617,13.29,0.031,333.4
2023-12-11T04:25:03,42.805,6.029,-0.012,0.032,-0.033,108.0,105.0,105.0,13.3,1505.2,350.6,-0.8,1.8,2471.626,13.29,0.034,339.4
2023-12-11T04:28:03,42.805,6.029,0.019,0.001,-0.014,107.0,105.0,105.0,13.3,1505.2,0.7,-0.8,1.8,2471.607,13.29,0.019,87.0
2023-12-11T04:31:03,42.805,6.029,0.01,0.005,-0.002,107.0,107.0,104.0,13.4,1505.2,347.0,-0.8,1.8,2471.607,13.29,0.011,63.4
2023-12-11T04:34:03,42.805,6.029,-0.014,0.013,0.016,107.0,106.0,104.0,13.3,1505.2,343.6,-0.8,1.8,2471.642,13.29,0.019,312.9
2023-12-11T04:37:03,42.805,6.029,0.006,0.017,-0.037,108.0,106.0,105.0,13.3,1505.2,351.1,-0.7,1.8,2471.623,13.29,0.018,19.4
2023-12-11T04:40:03,42.805,6.029,0.004,0.02,0.007,108.0,107.0,104.0,13.4,1505.2,351.0,-0.8,1.8,2471.612,13.29,0.02,11.3
2023-12-11T04:43:03,42.805,6.029,0.002,0.016,0.002,109.0,107.0,104.0,13.4,1505.2,0.0,-0.8,1.8,2471.653,13.29,0.016,7.1
2023-12-11T04:46:03,42.805,6.029,0.006,0.027,-0.022,106.0,106.0,104.0,13.3,1505.2,341.0,-0.8,1.8,2471.617,13.29,0.027,12.5
2023-12-11T04:49:03,42.805,6.029,0.014,0.034,-0.026,107.0,108.0,105.0,13.4,1505.2,354.8,-0.8,1.8,2471.657,13.29,0.036,22.4
2023-12-11T04:52:03,42.805,6.029,-0.007,0.023,-0.03,107.0,107.0,105.0,13.4,1505.2,346.1,-0.7,1.8,2471.651,13.3,0.024,343.1
2023-12-11T04:55:03,42.805,6.029,0.005,0.01,-0.006,106.0,107.0,104.0,13.3,1505.2,349.4,-0.8,1.8,2471.616,13.29,0.011,26.6
2023-12-11T04:58:03,42.805,6.029,-0.002,0.014,-0.018,108.0,108.0,105.0,13.3,1505.2,338.4,-0.8,1.8,2471.662,13.29,0.014,351.9
2023-12-11T05:04:03,42.805,6.029,0.014,0.021,-0.013,107.0,107.0,104.0,13.3,1505.2,357.3,-0.8,1.8,2471.681,13.29,0.025,33.7
2023-12-11T05:07:03,42.805,6.029,-0.011,0.01,-0.055,108.0,106.0,104.0,13.4,1505.2,337.5,-0.8,1.8,2471.69,13.29,0.014,312.3
2023-12-11T05:10:03,42.805,6.029,-0.008,0.002,0.002,109.0,106.0,104.0,13.4,1505.2,352.8,-0.8,1.8,2471.681,13.29,0.008,284.0
2023-12-11T05:13:03,42.805,6.029,0.001,0.0,-0.009,104.0,106.0,104.0,13.3,1505.2,0.0,-0.8,1.8,2471.67,13.29,0.001,90.0
2023-12-11T05:16:03,42.805,6.029,0.005,0.005,0.008,107.0,107.0,104.0,13.3,1505.2,342.6,-0.7,1.8,2471.699,13.29,0.007,45.0
2023-12-11T05:19:03,42.805,6.029,0.0,-0.004,0.01,108.0,108.0,105.0,13.4,1505.2,353.4,-0.7,1.8,2471.683,13.29,0.004,180.0
2023-12-11T05:22:03,42.805,6.029,-0.007,-0.002,-0.037,107.0,108.0,105.0,13.3,1505.2,0.8,-0.8,1.8,2471.639,13.29,0.007,254.1
2023-12-11T05:25:03,42.805,6.029,0.0,0.007,-0.021,107.0,107.0,104.0,13.4,1505.2,347.0,-0.8,1.8,2471.673,13.29,0.007,0.0
2023-12-11T05:28:03,42.805,6.029,0.008,0.002,-0.016,106.0,107.0,105.0,13.4,1505.2,348.5,-0.8,1.8,2471.659,13.29,0.008,76.0
2023-12-11T05:31:03,42.805,6.029,-0.012,-0.005,-0.035,106.0,107.0,104.0,13.3,1505.2,354.4,-0.8,1.8,2471.683,13.29,0.013,247.4
2023-12-11T05:34:03,42.805,6.029,-0.025,0.011,-0.032,107.0,106.0,105.0,13.3,1505.2,354.9,-0.8,1.8,2471.672,13.29,0.027,293.7
2023-12-11T05:37:03,42.805,6.029,-0.002,0.018,-0.016,106.0,106.0,103.0,13.4,1505.2,358.2,-0.8,1.8,2471.673,13.29,0.018,353.7
2023-12-11T05:40:03,42.805,6.029,-0.002,0.001,-0.029,106.0,108.0,104.0,13.3,1505.2,347.3,-0.8,1.8,2471.688,13.29,0.002,296.6
2023-12-11T05:43:03,42.805,6.029,0.015,0.005,-0.023,106.0,105.0,104.0,13.4,1505.2,354.2,-0.8,1.8,2471.721,13.29,0.015,71.6
2023-12-11T05:46:03,42.805,6.029,-0.013,0.032,-0.015,107.0,106.0,105.0,13.4,1505.2,346.5,-0.8,1.8,2471.695,13.3,0.034,337.9
2023-12-11T05:49:03,42.805,6.029,-0.001,0.017,0.026,107.0,106.0,105.0,13.3,1505.2,341.8,-0.8,1.8,2471.69,13.3,0.017,356.6
2023-12-11T05:52:03,42.805,6.029,0.003,0.001,0.0,108.0,106.0,103.0,13.4,1505.2,346.7,-0.8,1.8,2471.698,13.3,0.003,71.6
2023-12-11T05:55:03,42.805,6.029,-0.001,0.015,-0.013,107.0,107.0,104.0,13.3,1505.2,358.4,-0.7,1.8,2471.661,13.3,0.015,356.2
2023-12-11T05:58:03,42.805,6.029,0.019,0.018,-0.025,108.0,105.0,105.0,13.4,1505.2,340.7,-0.8,1.8,2471.677,13.29,0.026,46.5
2023-12-11T06:04:03,42.805,6.029,0.0,0.002,-0.021,106.0,106.0,104.0,13.4,1505.2,340.1,-0.8,1.8,2471.722,13.29,0.002,0.0
2023-12-11T06:07:03,42.805,6.029,0.023,0.012,-0.006,106.0,105.0,104.0,13.4,1505.2,344.6,-0.8,1.8,2471.71,13.29,0.025,62.4
2023-12-11T06:10:03,42.805,6.029,0.005,0.001,-0.063,106.0,107.0,104.0,13.3,1505.2,341.8,-0.8,1.8,2471.704,13.29,0.005,78.7
2023-12-11T06:13:03,42.805,6.029,-0.002,0.011,-0.028,107.0,106.0,103.0,13.4,1505.2,343.6,-0.7,1.8,2471.707,13.29,0.011,349.7
2023-12-11T06:16:03,42.805,6.029,-0.012,0.012,0.021,107.0,107.0,104.0,13.4,1505.2,345.6,-0.8,1.8,2471.734,13.29,0.016,315.0
2023-12-11T06:19:03,42.805,6.029,0.001,-0.002,-0.003,106.0,107.0,102.0,13.4,1505.2,347.0,-0.8,1.8,2471.71,13.3,0.002,153.4
2023-12-11T06:22:03,42.805,6.029,0.015,0.04,-0.019,107.0,106.0,105.0,13.3,1505.2,2.5,-0.8,1.8,2471.716,13.29,0.042,20.6
2023-12-11T06:25:03,42.805,6.029,0.0,0.0,-0.031,106.0,107.0,104.0,13.4,1505.2,355.6,-0.8,1.8,2471.675,13.3,0.0,0.0
2023-12-11T06:28:03,42.805,6.029,0.015,-0.016,-0.016,108.0,106.0,104.0,13.3,1505.2,348.5,-0.8,1.8,2471.731,13.3,0.021,136.9
2023-12-11T06:31:03,42.805,6.029,0.014,0.004,-0.018,107.0,104.0,105.0,13.3,1505.2,343.4,-0.8,1.8,2471.71,13.3,0.014,74.1
2023-12-11T06:34:03,42.805,6.029,0.0,-0.008,-0.019,106.0,106.0,104.0,13.3,1505.2,348.0,-0.7,1.8,2471.685,13.3,0.008,180.0
2023-12-11T06:37:03,42.805,6.029,-0.001,0.009,-0.015,106.0,107.0,103.0,13.4,1505.2,2.5,-0.8,1.8,2471.658,13.3,0.009,353.7
2023-12-11T06:40:03,42.805,6.029,0.005,0.01,-0.025,108.0,106.0,104.0,13.4,1505.2,342.1,-0.8,1.8,2471.681,13.3,0.011,26.6
2023-12-11T06:43:03,42.805,6.029,0.02,0.009,-0.004,106.0,105.0,103.0,13.3,1505.2,353.9,-0.8,1.8,2471.703,13.3,0.021,65.8
2023-12-11T06:46:03,42.805,6.029,0.011,0.014,-0.005,106.0,107.0,106.0,13.3,1505.2,339.8,-0.8,1.8,2471.685,13.3,0.017,38.2
2023-12-11T06:49:03,42.805,6.029,-0.012,0.002,0.003,107.0,106.0,105.0,13.4,1505.2,344.7,-0.8,1.8,2471.662,13.3,0.012,279.5
2023-12-11T06:52:03,42.805,6.029,0.007,0.021,-0.01,106.0,106.0,104.0,13.4,1505.2,3.3,-0.7,1.8,2471.643,13.3,0.022,18.4
2023-12-11T06:55:03,42.805,6.029,-0.001,0.003,-0.028,106.0,109.0,103.0,13.4,1505.2,344.5,-0.8,1.8,2471.697,13.3,0.003,341.6
2023-12-11T06:58:03,42.805,6.029,0.0,0.004,-0.026,107.0,107.0,104.0,13.4,1505.2,359.1,-0.8,1.8,2471.653,13.3,0.004,0.0
2023-12-11T07:04:03,42.805,6.029,-0.01,0.014,-0.014,106.0,106.0,103.0,13.4,1505.2,354.8,-0.8,1.8,2471.688,13.29,0.017,324.5
2023-12-11T07:07:03,42.805,6.029,0.006,0.008,-0.005,107.0,107.0,103.0,13.4,1505.2,1.7,-0.8,1.8,2471.709,13.3,0.01,36.9
2023-12-11T07:10:03,42.805,6.029,-0.004,-0.005,-0.037,106.0,106.0,104.0,13.3,1505.2,338.7,-0.8,1.8,2471.709,13.3,0.006,218.7
2023-12-11T07:13:03,42.805,6.029,-0.013,0.022,-0.03,106.0,106.0,104.0,13.3,1505.2,358.2,-0.8,1.8,2471.678,13.3,0.025,329.4
2023-12-11T07:16:03,42.805,6.029,-0.004,-0.008,-0.025,107.0,105.0,104.0,13.3,1505.2,351.9,-0.8,1.8,2471.668,13.3,0.008,206.6
2023-12-11T07:19:03,42.805,6.029,0.0,0.0,-0.03,107.0,106.0,103.0,13.4,1505.2,359.1,-0.7,1.8,2471.718,13.3,0.0,0.0
2023-12-11T07:22:03,42.805,6.029,0.012,0.021,-0.018,107.0,106.0,103.0,13.3,1505.2,349.5,-0.8,1.8,2471.695,13.3,0.024,29.7
2023-12-11T07:25:03,42.805,6.029,0.007,0.001,-0.008,105.0,106.0,104.0,13.4,1505.2,1.6,-0.7,1.8,2471.705,13.3,0.007,81.9
2023-12-11T07:28:03,42.805,6.029,0.001,0.0,-0.001,107.0,107.0,105.0,13.4,1505.2,337.5,-0.8,1.8,2471.656,13.3,0.001,90.0
2023-12-11T07:31:03,42.805,6.029,-0.017,0.002,-0.031,107.0,106.0,104.0,13.4,1505.2,357.5,-0.8,1.8,2471.674,13.29,0.017,276.7
2023-12-11T07:34:03,42.805,6.029,0.003,-0.02,-0.024,106.0,106.0,104.0,13.4,1505.2,3.2,-0.8,1.8,2471.668,13.29,0.02,171.5
2023-12-11T07:37:03,42.805,6.029,-0.015,0.0,-0.029,107.0,106.0,104.0,13.4,1505.2,339.0,-0.8,1.8,2471.697,13.29,0.015,270.0
2023-12-11T07:40:03,42.805,6.029,0.005,0.01,-0.02,107.0,107.0,104.0,13.3,1505.2,347.3,-0.8,1.8,2471.681,13.29,0.011,26.6
2023-12-11T07:43:03,42.805,6.029,-0.005,0.001,-0.027,107.0,106.0,105.0,13.3,1505.2,357.7,-0.8,1.8,2471.683,13.29,0.005,281.3
2023-12-11T07:46:03,42.805,6.029,-0.03,0.004,0.004,106.0,108.0,104.0,13.4,1505.2,355.6,-0.7,1.8,2471.673,13.29,0.03,277.6
2023-12-11T07:49:03,42.805,6.029,-0.004,0.001,-0.025,106.0,106.0,104.0,13.4,1505.2,351.9,-0.8,1.8,2471.687,13.29,0.004,284.0
2023-12-11T07:52:03,42.805,6.029,-0.006,0.018,-0.022,106.0,106.0,105.0,13.3,1505.2,357.7,-0.8,1.8,2471.663,13.29,0.018,341.6
2023-12-11T07:55:03,42.805,6.029,-0.009,0.012,-0.02,107.0,106.0,103.0,13.4,1505.2,356.9,-0.8,1.8,2471.649,13.29,0.015,323.1
2023-12-11T07:58:03,42.805,6.029,-0.018,0.005,-0.015,107.0,105.0,104.0,13.3,1505.2,345.7,-0.8,1.8,2471.671,13.29,0.018,285.5
2023-12-11T08:04:03,42.805,6.029,0.009,0.003,-0.01,106.0,106.0,104.0,13.4,1505.2,357.4,-0.8,1.8,2471.737,13.29,0.009,71.6
2023-12-11T08:07:03,42.805,6.029,-0.015,0.014,0.033,107.0,104.0,105.0,13.4,1505.2,344.6,-0.8,1.8,2471.674,13.29,0.02,313.0
2023-12-11T08:10:03,42.805,6.029,-0.013,0.023,-0.031,107.0,106.0,104.0,13.4,1505.2,358.4,-0.8,1.8,2471.705,13.29,0.026,330.5
2023-12-11T08:13:03,42.805,6.029,0.0,-0.001,-0.028,106.0,106.0,103.0,13.3,1505.2,351.7,-0.8,1.8,2471.71,13.29,0.001,180.0
2023-12-11T08:16:03,42.805,6.029,-0.02,0.001,-0.046,106.0,107.0,105.0,13.4,1505.2,353.8,-0.8,1.8,2471.705,13.29,0.02,272.9
2023-12-11T08:19:03,42.805,6.029,0.003,-0.001,0.0,104.0,108.0,103.0,13.4,1505.2,356.9,-0.8,1.8,2471.687,13.29,0.003,108.4
2023-12-11T08:22:03,42.805,6.029,-0.005,0.006,-0.009,106.0,105.0,104.0,13.4,1505.2,351.9,-0.7,1.8,2471.695,13.29,0.007,320.2
2023-12-11T08:25:03,42.805,6.029,-0.034,0.0,-0.053,106.0,107.0,103.0,13.3,1505.2,1.7,-0.8,1.8,2471.659,13.29,0.034,270.0
2023-12-11T08:28:03,42.805,6.029,-0.016,-0.004,-0.044,107.0,106.0,103.0,13.4,1505.2,336.9,-0.8,1.8,2471.696,13.29,0.016,256.0
2023-12-11T08:31:03,42.805,6.029,-0.011,-0.01,-0.034,107.0,106.0,104.0,13.4,1505.2,0.0,-0.8,1.8,2471.658,13.29,0.014,227.7
2023-12-11T08:34:03,42.805,6.029,-0.005,-0.007,-0.035,106.0,107.0,105.0,13.4,1505.2,354.8,-0.8,1.8,2471.658,13.29,0.008,215.5
2023-12-11T08:37:03,42.805,6.029,-0.006,-0.012,-0.023,107.0,105.0,103.0,13.4,1505.2,359.1,-0.8,1.8,2471.67,13.29,0.013,206.6
2023-12-11T08:40:03,42.805,6.029,-0.009,-0.015,-0.031,106.0,106.0,104.0,13.4,1505.2,339.3,-0.7,1.8,2471.685,13.29,0.017,211.0
2023-12-11T08:43:03,42.805,6.029,-0.005,0.01,-0.016,108.0,107.0,104.0,13.4,1505.2,345.5,-0.7,1.8,2471.656,13.29,0.011,333.4
2023-12-11T08:46:03,42.805,6.029,-0.012,0.013,-0.024,107.0,108.0,104.0,13.4,1505.2,355.4,-0.8,1.8,2471.671,13.29,0.017,317.3
2023-12-11T08:49:03,42.805,6.029,-0.019,0.005,-0.034,107.0,106.0,105.0,13.4,1505.2,355.5,-0.8,1.8,2471.663,13.29,0.019,284.7
2023-12-11T08:52:03,42.805,6.029,-0.011,0.03,-0.01,108.0,107.0,104.0,13.3,1505.2,0.0,-0.8,1.8,2471.642,13.29,0.031,339.9
2023-12-11T08:55:03,42.805,6.029,-0.007,0.018,-0.002,107.0,106.0,106.0,13.4,1505.2,341.0,-0.8,1.8,2471.664,13.29,0.019,338.8
2023-12-11T08:58:03,42.805,6.029,-0.002,-0.005,-0.011,108.0,106.0,104.0,13.4,1505.2,345.3,-0.8,1.8,2471.665,13.29,0.005,201.8
2023-12-11T09:04:03,42.805,6.029,-0.027,0.002,-0.025,107.0,107.0,105.0,13.4,1505.2,343.5,-0.8,1.8,2471.717,13.29,0.027,274.2
2023-12-11T09:07:03,42.805,6.029,-0.003,0.002,-0.017,108.0,107.0,104.0,13.4,1505.2,1.6,-0.8,1.8,2471.7,13.29,0.003,303.7
2023-12-11T09:10:03,42.805,6.029,-0.019,0.012,-0.044,108.0,107.0,104.0,13.4,1505.2,350.6,-0.8,1.8,2471.687,13.29,0.022,302.3
2023-12-11T09:13:03,42.805,6.029,-0.027,0.007,-0.036,109.0,107.0,104.0,13.4,1505.2,345.9,-0.8,1.8,2471.672,13.29,0.027,284.5
2023-12-11T09:16:03,42.805,6.029,-0.018,0.022,-0.034,107.0,106.0,104.0,13.4,1505.2,337.9,-0.7,1.8,2471.684,13.29,0.028,320.7
2023-12-11T09:19:03,42.805,6.029,-0.002,0.0,-0.05,107.0,107.0,105.0,13.4,1505.2,343.9,-0.8,1.8,2471.659,13.29,0.002,270.0
2023-12-11T09:22:03,42.805,6.029,-0.006,0.012,-0.009,108.0,107.0,104.0,13.4,1505.2,357.6,-0.8,1.8,2471.667,13.29,0.013,333.4
2023-12-11T09:25:03,42.805,6.029,-0.03,0.008,-0.013,107.0,106.0,105.0,13.4,1505.2,342.0,-0.8,1.8,2471.654,13.29,0.031,284.9
2023-12-11T09:28:03,42.805,6.029,-0.015,0.015,-0.02,107.0,108.0,103.0,13.3,1505.2,350.0,-0.7,1.8,2471.639,13.29,0.021,315.0
2023-12-11T09:31:03,42.805,6.029,-0.021,0.004,-0.001,107.0,107.0,104.0,13.4,1505.2,353.1,-0.7,1.8,2471.668,13.29,0.021,280.8
2023-12-11T09:34:03,42.805,6.029,-0.009,0.011,0.0,108.0,107.0,105.0,13.4,1505.2,349.0,-0.8,1.8,2471.669,13.29,0.014,320.7
2023-12-11T09:37:03,42.805,6.029,0.001,0.02,-0.025,108.0,105.0,105.0,13.4,1505.2,349.6,-0.7,1.8,2471.621,13.29,0.02,2.9
2023-12-11T09:40:03,42.805,6.029,-0.002,0.054,-0.001,108.0,106.0,105.0,13.4,1505.2,1.6,-0.8,1.9,2471.661,13.29,0.054,357.9
2023-12-11T09:43:03,42.805,6.029,-0.015,0.0,-0.013,108.0,107.0,104.0,13.3,1505.2,348.1,-0.7,1.8,2471.654,13.29,0.015,270.0
2023-12-11T09:46:03,42.805,6.029,-0.017,0.02,-0.028,109.0,106.0,105.0,13.4,1505.2,356.5,-0.8,1.8,2471.6,13.29,0.026,319.6
2023-12-11T09:49:03,42.805,6.029,-0.015,0.012,-0.01,108.0,106.0,104.0,13.4,1505.2,352.6,-0.7,1.8,2471.627,13.29,0.019,308.7
2023-12-11T09:52:03,42.805,6.029,-0.019,0.002,-0.026,107.0,107.0,104.0,13.3,1505.2,337.0,-0.7,1.8,2471.636,13.29,0.019,276.0
2023-12-11T09:55:03,42.805,6.029,-0.041,0.002,0.01,107.0,106.0,104.0,13.3,1505.2,345.7,-0.8,1.8,2471.602,13.29,0.041,272.8
2023-12-11T09:58:03,42.805,6.029,-0.036,0.03,0.004,108.0,107.0,105.0,13.3,1505.2,359.1,-0.8,1.8,2471.632,13.29,0.046,309.8
2023-12-11T10:04:03,42.805,6.029,-0.016,0.01,-0.022,109.0,107.0,105.0,13.3,1505.2,349.4,-0.8,1.8,2471.639,13.29,0.018,302.0